Weather History for Buckland, AK

Change the Weather History Date:

Tuesday, June 18, 2013

  Actual Average (PASK) Record (PASK)
Temperature  
Mean Temperature 71 °F -  
Max Temperature 89 °F 57 °F 80 °F (2013)
Min Temperature 53 °F 43 °F 30 °F (1999)
Cooling Degree Days 6    
Growing Degree Days 21 (Base 50)    
Moisture  
Dew Point 48 °F    
Average Humidity 47    
Maximum Humidity 94    
Minimum Humidity 18    
Precipitation  
Precipitation 0.00 in - - ()
Sea Level Pressure  
Sea Level Pressure 30.01 in    
Wind  
Wind Speed 5 mph (NE)    
Max Wind Speed 14 mph    
Max Gust Speed 18 mph    
Visibility 10 miles    
Events      
Averages and records for this station are not official NWS values.
T = Trace of Precipitation, MM = Missing Value Source: NWS Daily Summary

Daily Weather History Graph

Daily Weather History Graph

Search for Another Location

Airport:

Trip Planner

Search our weather history database for the weather conditions in past years. The results will help you decide how hot, cold, wet, or windy it might be!

Date:

Astronomy

Jun. 18, 2013 Rise Set
Actual Time 3:18 AM AKDT 2:13 AM AKDT
Civil Twilight Sun does not rise Sun does not rise
Nautical Twilight Sun does not rise Sun does not rise
Astronomical Twilight Sun does not rise Sun does not rise
Moon 6:32 PM AKDT (6/18) 2:32 AM AKDT (6/18)
Length of Visible Light 24h 00m
Length of Day
22h 55m
Waxing Gibbous, 72% of the Moon is Illuminated
Jun 18
Waxing Gibbous
Jun 23
Full
Jun 29
Last Quarter
Jul 7
New
Jul 15
First Quarter

Hourly Weather History & Observations

Time (AKDT) Temp. Dew Point Humidity Pressure Visibility Wind Dir Wind Speed Gust Speed Precip Events Conditions
12:16 AM 68.0 °F 57.2 °F 68% 30.11 in 10.0 mi NW 9.2 mph - N/A   Clear
12:36 AM 66.2 °F 55.4 °F 68% 30.11 in 10.0 mi NW 9.2 mph - N/A   Clear
12:56 AM 64.4 °F 55.4 °F 73% 30.11 in 10.0 mi NW 8.1 mph - N/A   Clear
1:16 AM 64.4 °F 53.6 °F 68% 30.11 in 10.0 mi NW 5.8 mph - N/A   Clear
1:36 AM 62.6 °F 53.6 °F 72% 30.10 in 10.0 mi North 3.5 mph - N/A   Clear
1:56 AM 62.6 °F 53.6 °F 72% 30.11 in 10.0 mi Calm Calm - N/A   Clear
2:16 AM 60.8 °F 53.6 °F 77% 30.11 in 10.0 mi NNE 3.5 mph - N/A   Clear
2:36 AM 57.2 °F 51.8 °F 82% 30.11 in 10.0 mi NE 3.5 mph - N/A   Clear
2:56 AM 57.2 °F 51.8 °F 82% 30.11 in 10.0 mi ENE 4.6 mph - N/A   Clear
3:16 AM 55.4 °F 51.8 °F 88% 30.11 in 10.0 mi NE 3.5 mph - N/A   Clear
3:36 AM 55.4 °F 51.8 °F 88% 30.11 in 10.0 mi Calm Calm - N/A   Clear
3:56 AM 55.4 °F 51.8 °F 88% 30.11 in 10.0 mi Calm Calm - N/A   Clear
4:16 AM 55.4 °F 50.0 °F 82% 30.11 in 10.0 mi Calm Calm - N/A   Clear
4:36 AM 55.4 °F 51.8 °F 88% 30.11 in 10.0 mi Calm Calm - N/A   Clear
4:56 AM 53.6 °F 51.8 °F 94% 30.11 in 10.0 mi Calm Calm - N/A   Clear
5:16 AM 53.6 °F 51.8 °F 94% 30.11 in 10.0 mi Calm Calm - N/A   Clear
5:36 AM 53.6 °F 51.8 °F 94% 30.10 in 10.0 mi Calm Calm - N/A   Clear
5:56 AM 55.4 °F 51.8 °F 88% 30.10 in 10.0 mi Calm Calm - N/A   Clear
6:16 AM 55.4 °F 51.8 °F 88% 30.10 in 10.0 mi SE 3.5 mph - N/A   Clear
6:36 AM 57.2 °F 51.8 °F 82% 30.10 in 10.0 mi SE 3.5 mph - N/A   Clear
6:56 AM 57.2 °F 53.6 °F 88% 30.10 in 10.0 mi SSE 3.5 mph - N/A   Clear
7:16 AM 59.0 °F 53.6 °F 82% 30.10 in 10.0 mi South 3.5 mph - N/A   Clear
7:36 AM 60.8 °F 53.6 °F 77% 30.09 in 10.0 mi Calm Calm - N/A   Clear
7:56 AM 62.6 °F 53.6 °F 72% 30.09 in 10.0 mi Calm Calm - N/A   Clear
8:16 AM 64.4 °F 53.6 °F 68% 30.09 in 10.0 mi Calm Calm - N/A   Clear
8:36 AM 64.4 °F 53.6 °F 68% 30.08 in 10.0 mi Calm Calm - N/A   Clear
8:56 AM 66.2 °F 53.6 °F 64% 30.08 in 10.0 mi Calm Calm - N/A   Clear
9:16 AM 68.0 °F 51.8 °F 56% 30.08 in 10.0 mi Calm Calm - N/A   Clear
9:36 AM 69.8 °F 51.8 °F 53% 30.07 in 10.0 mi Calm Calm - N/A   Clear
9:56 AM 71.6 °F 51.8 °F 50% 30.07 in 10.0 mi Calm Calm - N/A   Clear
10:16 AM 73.4 °F 51.8 °F 47% 30.06 in 10.0 mi Calm Calm - N/A   Clear
10:36 AM 75.2 °F 53.6 °F 47% 30.06 in 10.0 mi South 3.5 mph - N/A   Clear
10:56 AM 77.0 °F 48.2 °F 36% 30.06 in 10.0 mi ESE 5.8 mph - N/A   Clear
11:16 AM 77.0 °F 48.2 °F 36% 30.05 in 10.0 mi SSW 4.6 mph - N/A   Clear
11:36 AM 78.8 °F 44.6 °F 30% 30.05 in 10.0 mi SE 6.9 mph - N/A   Clear
11:56 AM 78.8 °F 44.6 °F 30% 30.05 in 10.0 mi Calm Calm - N/A   Clear
12:16 PM 80.6 °F 46.4 °F 30% 30.04 in 10.0 mi NNW 5.8 mph - N/A   Clear
12:36 PM 80.6 °F 46.4 °F 30% 30.04 in 10.0 mi Calm Calm - N/A   Clear
12:56 PM 80.6 °F 48.2 °F 32% 30.03 in 10.0 mi NW 5.8 mph - N/A   Clear
1:16 PM 82.4 °F 46.4 °F 28% 30.03 in 10.0 mi Calm Calm - N/A   Clear
1:36 PM 82.4 °F 46.4 °F 28% 30.02 in 10.0 mi Calm Calm - N/A   Clear
1:56 PM 82.4 °F 46.4 °F 28% 30.01 in 10.0 mi NW 3.5 mph - N/A   Clear
2:16 PM 82.4 °F 46.4 °F 28% 30.00 in 10.0 mi Calm Calm - N/A   Clear
2:36 PM 84.2 °F 46.4 °F 27% 29.99 in 10.0 mi Calm Calm - N/A   Clear
2:56 PM 86.0 °F 41.0 °F 20% 29.98 in 10.0 mi East 9.2 mph - N/A   Clear
3:16 PM 87.8 °F 41.0 °F 19% 29.98 in 10.0 mi NE 6.9 mph - N/A   Clear
3:36 PM 87.8 °F 41.0 °F 19% 29.97 in 10.0 mi ENE 8.1 mph - N/A   Clear
3:56 PM 87.8 °F 39.2 °F 18% 29.96 in 10.0 mi East 5.8 mph - N/A   Clear
4:16 PM 87.8 °F 39.2 °F 18% 29.95 in 10.0 mi ENE 4.6 mph - N/A   Clear
4:36 PM 87.8 °F 41.0 °F 19% 29.95 in 10.0 mi East 11.5 mph 16.1 mph N/A   Clear
4:56 PM 87.8 °F 42.8 °F 21% 29.94 in 10.0 mi NE 9.2 mph - N/A   Clear
5:16 PM 87.8 °F 41.0 °F 19% 29.94 in 10.0 mi ENE 6.9 mph - N/A   Clear
5:36 PM 87.8 °F 42.8 °F 21% 29.93 in 10.0 mi East 5.8 mph - N/A   Clear
5:56 PM 89.6 °F 42.8 °F 20% 29.92 in 10.0 mi ENE 8.1 mph - N/A   Clear
6:16 PM 87.8 °F 41.0 °F 19% 29.92 in 10.0 mi East 8.1 mph - N/A   Clear
6:36 PM 87.8 °F 41.0 °F 19% 29.91 in 10.0 mi NE 11.5 mph - N/A   Clear
6:56 PM 87.8 °F 41.0 °F 19% 29.91 in 10.0 mi NE 8.1 mph 18.4 mph N/A   Clear
7:16 PM 87.8 °F 41.0 °F 19% 29.90 in 10.0 mi ENE 8.1 mph - N/A   Clear
7:36 PM 89.6 °F 41.0 °F 18% 29.90 in 10.0 mi NE 11.5 mph - N/A   Clear
7:56 PM 87.8 °F 41.0 °F 19% 29.89 in 10.0 mi NE 12.7 mph 17.3 mph N/A   Clear
8:16 PM 87.8 °F 39.2 °F 18% 29.89 in 10.0 mi NE 12.7 mph - N/A   Clear
8:36 PM 87.8 °F 39.2 °F 18% 29.88 in 10.0 mi NE 12.7 mph 18.4 mph N/A   Clear
8:56 PM 87.8 °F 39.2 °F 18% 29.88 in 10.0 mi NE 13.8 mph - N/A   Clear
9:16 PM 86.0 °F 41.0 °F 20% 29.88 in 10.0 mi NE 12.7 mph - N/A   Clear
9:36 PM 84.2 °F 44.6 °F 25% 29.88 in 10.0 mi NNE 11.5 mph - N/A   Clear
9:56 PM 84.2 °F 46.4 °F 27% 29.88 in 10.0 mi NNE 10.4 mph - N/A   Clear
10:16 PM 82.4 °F 46.4 °F 28% 29.88 in 10.0 mi NNE 9.2 mph - N/A   Clear
10:36 PM 80.6 °F 48.2 °F 32% 29.87 in 10.0 mi NNE 9.2 mph - N/A   Clear
10:56 PM 80.6 °F 48.2 °F 32% 29.88 in 10.0 mi NNE 6.9 mph - N/A   Clear
11:16 PM 78.8 °F 48.2 °F 34% 29.87 in 10.0 mi North 5.8 mph - N/A   Clear
11:36 PM 77.0 °F 48.2 °F 36% 29.87 in 10.0 mi NE 8.1 mph - N/A   Clear
11:56 PM 75.2 °F 48.2 °F 38% 29.87 in 10.0 mi NE 6.9 mph - N/A   Clear